Regional Weather Roundup
Issued by NWS

Home | Current Version | Previous Version | Text Only | Print | Product List | Glossary On
Versions: 1 2 3 4 5 6 7 8 9 10 11 12 13 14 15 16 17 18 19 20 21 22 23 24 25 26 27 28 29 30 31 32 33 34 35 36 37 38 39 40 41 42 43 44 45 46 47 48 49 50
000
ASUS45 KPSR 062000
RWRAZ

ARIZONA REGIONAL HOURLY WEATHER ROUNDUP
NATIONAL WEATHER SERVICE PHOENIX AZ
100 PM MST WED MAY 06 2015

NOTE: FAIR INDICATES FEW OR NO CLOUDS BELOW 12,000 FEET WITH NO
SIGNIFICANT WEATHER AND/OR OBSTRUCTIONS TO VISIBILITY.

AZZ001>003-036-062100-
NORTHWEST ARIZONA

CITY           SKY/WX    TMP DP  RH WIND       PRES   REMARKS
KINGMAN        MOSUNNY   74  34  23 SW22G29   29.80F
$$

AZZ004>008-015-016-018-062100-
NORTH CENTRAL ARIZONA

CITY           SKY/WX    TMP DP  RH WIND       PRES   REMARKS
GRAND CANYON   PTSUNNY   59  33  37 S13G21    29.93F
PRESCOTT       MOSUNNY   67  25  20 SW16G23   29.89F
FLAGSTAFF      NOT AVBL
PAGE           SUNNY     72  35  25 VRB6      29.78F
$$

AZZ009>014-017-062100-
NORTHEAST ARIZONA

CITY           SKY/WX    TMP DP  RH WIND       PRES   REMARKS
WINSLOW        NOT AVBL
SAINT JOHNS    MOSUNNY   67  29  24 SW15G23   29.90F
WINDOW ROCK    MOSUNNY   62  36  37 SW12G22   29.94F
$$

AZZ023-062100-
GREATER PHOENIX AREA

CITY           SKY/WX    TMP DP  RH WIND       PRES   REMARKS
PHOENIX        PTSUNNY   86  32  14 S14G21    29.74F
GLENDALE       MOSUNNY   82  36  18 E6G17     29.76F
DEER VALLEY    SUNNY     81  30  15 S10G18    29.75F
SCOTTSDALE     MOSUNNY   82  32  16 SE8       29.78F
MESA-FALCON    PTSUNNY   82  32  16 S12       29.76F
MESA-GATEWAY   PTSUNNY   82  34  17 VRB7      29.78F
CHANDLER       MOSUNNY   82  34  17 SW10      29.76F
$$

AZZ027-028-062100-
SOUTHWEST MARICOPA COUNTY AND PINAL COUNTY

CITY           SKY/WX    TMP DP  RH WIND       PRES   REMARKS
CASA GRANDE    SUNNY     82  36  18 E5        29.75F
GILA BEND      SUNNY     86  33  14 SW12G18   29.72F
$$

AZZ503-504-507>509-062100-
SOUTHEAST ARIZONA

CITY           SKY/WX    TMP DP  RH WIND       PRES   REMARKS
TUCSON         SUNNY     85  17   8 S15G26    29.81F
DAVIS-MONTHAN  SUNNY     83  19   9 W20G29    29.79F
RYAN FIELD       N/A     86  28  12 SW20G25   29.80F
NOGALES        SUNNY     80  20  10 SW17G31   29.88F
SIERRA VISTA   SUNNY     76   9   7 SW14G26   29.92F
SAFFORD        SUNNY     82  32  16 N3        29.79F
$$

AZZ020-021-025-026-031-062100-
SOUTHWEST ARIZONA

CITY           SKY/WX    TMP DP  RH WIND       PRES   REMARKS
YUMA           MOSUNNY   82  48  30 S12G17    29.73F
$$

CAZ031-033-041-043-047-048-061-062100-
SOUTHERN CALIFORNIA

CITY           SKY/WX    TMP DP  RH WIND       PRES   REMARKS
DOWNTOWN L.A.  CLOUDY    65  51  60 VRB3      29.88F
L.A. AIRPORT   PTSUNNY   62  51  67 W9        29.90F
SAN DIEGO      PTSUNNY   64  50  60 SW13      29.92S
BURBANK        CLOUDY    64  48  56 VRB7      29.87F
ONTARIO        CLOUDY    64  44  48 W9        29.87F
RIVERSIDE      CLOUDY    65  45  48 MISG      29.87F
PALM SPRINGS   MOSUNNY   80  40  23 NW16      29.75F
EL CENTRO NAS  MOSUNNY   81  39  22 VRB5      29.74F
IMPERIAL       SUNNY     80  40  23 SW6       29.72F
BLYTHE         SUNNY     82  48  30 S16G25    29.72F
$$

NVZ020-UTZ003-062100-
SOUTHERN NEVADA-UTAH

CITY           SKY/WX    TMP DP  RH WIND       PRES   REMARKS
LAS VEGAS      NOT AVBL
SALT LAKE CITY TSTM      61  40  45 E13       29.74S
$$

NMZ009-TXZ055-062100-
NEW MEXICO-WEST TEXAS

CITY           SKY/WX    TMP DP  RH WIND       PRES   REMARKS
ALBUQUERQUE    PTSUNNY   69  40  34 W12G18    29.90F
EL PASO        MOSUNNY   81  31  16 S9G17     29.87F
$$


........................KEY........................
SKY/WX - SKY CONDITION/WEATHER
TMP    - TEMPERATURE IN FAHRENHEIT
DP     - DEW POINT IN FAHRENHEIT
RH     - RELATIVE HUMIDITY IN PERCENT
WIND   - DIRECTION AND SPEED IN MILES PER HOUR (MPH)
VRB    - VARIABLE WIND DIRECTION
PRES   - MEAN SEA LEVEL PRESSURE IN INCHES OF MERCURY
         F - FALLING PRESSURE   R - RISING PRESSURE
         S - STEADY PRESSURE
VSB    - VISIBILITY IN MILES
HX     - HEAT INDEX IN FAHRENHEIT
WCI    - WIND CHILL INDEX IN FAHRENHEIT
TC     - TEMPERATURE IN CELSIUS WHICH IS ALSO KNOWN AS
         TEMPERATURE IN CENTIGRADE
AFB    - AIR FORCE BASE
         LUKE AFB IS LUKE AIR FORCE BASE
         DAVIS-MONTHAN IS DAVIS-MONTHAN AIR FORCE BASE
NAS    - NAVAL AIR STATION
         EL CENTRO NAS IS EL CENTRO NAVAL AIR STATION
N/A    - NOT AVAILABLE



USA.gov is the U.S. government's official web portal to all federal, state and local government web resources and services.